TITAN 3C TRANSTAGE DEB, 2050

Orbit data source: Space-Track

TITAN 3C TRANSTAGE DEB, 2050 is space debris in LEO originally from a launch on Fri, 15 Oct 1965 UTC launched from the Air Force Eastern Test Range (AFETR). Debris objects in space refer to the collection of defunct objects orbiting the Earth. Examples of debris include non-operational satellites, rocket bodies, and fragments generated from explosions, collisions, or faulty payload assembly.

Loading next visibility...
TITAN 3C TRANSTAGE DEB details
Identifier
2050, 1965-082JL
Orbit
LEO
Last TLE update17 hours ago
Origin
Flag of USUSAF SSD (US)
ManufacturerUnknown
MissionSpacecraft
Bus & MotorUnknown
MassUnknown
Launch date (UTC)
1965-10-15 (59 years ago)
Launch vehicleUnknown
Launch site
Air Force Eastern Test Range (AFETR)
Object type
Payload
Rocket body
Debris
Shape & HBRUnknown
Radar Cross SectionSmall (<0.1 m²)

Expand to show TLE details & history

TLE from 17 hours ago
0 TITAN 3C TRANSTAGE DEB
1 02050U 65082JL  24355.77522939  .00001880  00000-0  44640-3 0  9999
2 02050  32.2635 151.5383 0085506 321.7656  37.6946 14.50161731 79640
Epoch: 2024-12-20T18:36Z
Definitive object data (Epoch: 2024-12-20T18:36:19.819Z)
Latitude-0.00005°
Longitude142.61974°
Altitude675.939 km
Speed7.546 km/s
True Right ascension10h 06m 09s
True Declination0° 00' 00"
Sunlit
Object was in partial shadow at TLE epoch
Visualization TLE readout
Latitude13.00188°
Longitude-62.8751°
Altitude783.281 km
Speed7.434 km/s
Apparent Right ascension21h 24m 47s
Apparent Declination-12° 20' 38"
Sunlit
Object is in daylight
Visualization observer readout
Local Sidereal Time10:52:15
Azimuth41.052° NE
Elevation-56.359°
Doppler factor1
Orbital elements
Apogee altitude789.444 km
Perigee altitude667.909 km
Semi-major axis7,106.813 km
Eccentricity0.0085506
Inclination32.2635°
RAAN151.5383°
Arg. of periapsis321.7656°
True anomaly38.29881°
Mean anomaly37.6946°
Eccentric anomaly37.9962°
Mean motion3.62269 °/min
BSTAR0.0004464
Orbital period99.37 mins
Loading maneuver chart data...

TITAN 3C TRANSTAGE DEB Visibility forecast

Observer location: undefined°, undefined

Span
Click to sort rows by Start time (UTC) header in descending order
Start Az.
Max El. time (UTC)
Max El. Az.
Max El.
End time (UTC)
End Az.
7 mins2024-12-21 14:40:33.258Z213.423° SW2024-12-21 14:44:33.258Z158.308° S22.415°2024-12-21 14:47:33.258Z117.03° SE
8 mins2024-12-21 16:25:33.258Z235.234° WSW2024-12-21 16:28:33.258Z189.729° SSW30°2024-12-21 16:33:33.258Z114.363° SE
7 mins2024-12-21 18:10:33.258Z242.576° WSW2024-12-21 18:13:33.258Z198.605° SSW26.084°2024-12-21 18:17:33.258Z139.961° SSE
|